星链-33614 (STARLINK-33614)

导读 | 星芒AI

STARLINK-33614 是 SpaceX 星链计划中的一颗低轨通信卫星,属于第三代星链卫星(v1.5)。该卫星于2023年发射,旨在增强全球互联网覆盖,提供低延迟、高速度的网络服务。它运行在约550公里高度的近地轨道,配备先进推进系统和激光通信设备,以提升数据传输效率并减少地面基站依赖。作为星链星座的一部分,STARLINK-33614 支持偏远地区的宽带接入,助力实现全球互联网普及目标。

基本信息
目录编号:
63372
目录名称:
STARLINK-33614
国际标识:
2025-063K
轨道中心:
EARTH
卫星名称:
星链-33614
卫星全名:
星链-33614 (STARLINK-33614)
卫星状态:
在轨 (已飞行226 天)
发射日期:
2025-03-26 UTC
国别 :
美国 (US)
星等 :
--
轨道信息
数据来源 国际轨道数据
星历时间: 2025-11-07T16:00:02+0800
15小时前
查看轨道信息
半长轴: 6847.825km
偏心率: 0.0001377
轨道倾角: 53.159°
近地点辐角 79.159°
升交点赤经 258.251°
平近点角 223.091°
近地点: 468.747km
远地点: 470.633km
周期: 93.992分钟
每日圈数: 15.320533
详细信息
固有亮度:
5
最大亮度:
2.5
卫星平台:
Starlink V1.0
覆盖范围:
全球
运营商:
太空探索技术公司
运营商所在国:
美国
制造商(研发单位):
太空探索技术公司
制造商所在国:
美国
使用方式:
暂无
卫星简介
Starlink 计划是 SpaceX 推出的全球卫星互联网项目,通过发射低轨道卫星,为全球尤其是偏远地区提供高速、低延迟的互联网服务。自 2019 年起,Starlink 已部署数千颗卫星,旨在缩小全球数字鸿沟,推动互联网普及。该项目还为军事、航空等行业提供通信支持,带来广泛经济效益。
2D轨道图
3D轨道图
轨道高度分析图
轨道倾角分析图
轨道综合分析图
查看轨道综合分析图